Velovelo
Português Nederlands 日本語 中文
Español English čeština slovenčina
русский italiano polski norsk
français Deutsch svenska عربي
 
 poprzednia strona
 Wyślij znajomemu
 Aby wydrukować
 ---> La Blé d’Or 2013 : Résultats du 98 km

Cl...Dos.Nom prénomC.cTemps.......Moy...
1 687 GAUDENECHE Cedric 1° B 02:40:05 36,73
2 575 AUCHEDE Gary 2° B 02:40:06 36,73
3 542 CALMANT Sebastien 3° B 02:40:09 36,72
4 558 TOLONI Gerome 4° B 02:40:10 36,71
5 573 LELEU Geoffroy 5° B 02:40:37 36,61
6 781 JUIGNET Xavier 1° Z 02:40:38 36,61
7 711 RIO Xavier 1° C 02:40:42 36,59
8 788 GEOFFROY Lelievre 1° VC 02:44:30 35,74
9 594 VOSTIER Aurelien 1° A 02:45:38 35,5
10 677 LAMOTTE Sylvain 2° C 02:46:07 35,4
11 585 BRENNER Eric 6° B 02:46:08 35,39
12 586 BOUCHER Pier 1° D 02:46:09 35,39
13 701 ROY JEAN Philippe 3° C 02:46:11 35,38
14 567 LABUSSIERE JEAN Luc 7° B 02:47:04 35,2
15 763 PINARD Guillaume 8° B 02:47:08 35,18
16 723 GANDEBOEUF Christian 2° D 02:47:09 35,18
17 696 DUQUESNOY Eric 4° C 02:47:09 35,18
18 719 BRAUD Christophe 5° C 02:47:13 35,16
19 674 LALLEMENT Florent 6° C 02:47:14 35,16
20 520 VERTADIER Eric 7° C 02:47:14 35,16
21 720 BROU Damien 1° H1 02:47:16 35,15
22 695 QUIRIN Andre 3° D 02:47:16 35,15
23 738 BANCE Dimitri 8° C 02:47:18 35,15
24 568 SEHAN JEAN Michel 9° C 02:47:21 35,14
25 659 DECOMBE Christian 4° D 02:47:35 35,09
26 785 PITOUS Alain 5° D 02:47:57 35,01
27 680 MASANET Adrien 2° A 02:49:03 34,78
28 523 COUZIN Ludovic 10° C 02:50:24 34,51
29 851 CELERIER Hugo 3° A 02:50:36 34,47
30 834 SANTIA-ANDREW Eric 6° D 02:50:39 34,46
31 828 CONSTANT Jean Luc 1° E 02:50:40 34,45
32 709 ALIA Florian 4° A 02:50:40 34,45
33 605 CAUCHY Alexandre 5° A 02:50:42 34,45
34 516 MENOU Gilles 7° D 02:50:43 34,44
35 708 BOU Andre 11° C 02:50:43 34,44
36 745 WELLENS Patrice 12° C 02:50:44 34,44
37 620 DRIGEARD Jacques 8° D 02:50:44 34,44
38 598 VAXELAIRE Cyril 13° C 02:50:44 34,44
39 553 SEVESTRE JEAN Pierre 1° F 02:50:46 34,43
40 672 BOUTIGNY David 14° C 02:50:46 34,43
41 846 BOURGAULT Nicolas 6° A 02:50:49 34,42
42 820 PACQUET Pascal 15° C 02:50:49 34,42
43 555 POTY Henry 2° E 02:50:51 34,42
44 536 SAUGER Gregory 9° B 02:50:51 34,42
45 526 MORVAN Yves 16° C 02:50:54 34,41
46 850 BUFFE Julien 7° A 02:50:59 34,39
47 811 ROMAIN Thierry 17° C 02:51:01 34,38
48 789 BERCET Joel 18° C 02:51:04 34,37
49 606 GUILLON Laurent 19° C 02:51:08 34,36
50 502 COMBRISSON Stéphane 20° C 02:51:12 34,35
51 693 BOUTIGNY Cyril 21° C 02:53:30 33,89
52 596 OFFREDO Joel 3° E 02:53:35 33,87
53 683 MARCHAL Eric 22° C 02:53:43 33,85
54 679 BOUGET JEAN Marc 9° D 02:54:03 33,78
55 694 TESSAUD Didier 10° D 02:54:46 33,64
56 665 CANFIN Luc 11° D 02:55:45 33,46
57 796 PILLON Thierry 12° D 02:55:48 33,45
58 522 VALLES Marc 23° C 02:55:55 33,42
59 544 SAUSSE Thierry 24° C 02:56:00 33,41
60 807 BAILLY Alain 25° C 02:56:07 33,39
61 552 CROUZILLES Alain 13° D 02:56:17 33,36
62 684 NOAILLY Raoul 26° C 02:56:42 33,28
63 505 LEBERON Yvan 27° C 02:56:55 33,24
64 842 FRANCISCO Manuel 28° C 02:56:55 33,24
65 682 REUX Pierre 14° D 02:56:58 33,23
66 515 PROVOST Bernard 2° F 02:57:05 33,2
67 565 FLOHIMONT Regis 10° B 02:58:30 32,94
68 504 LEBERON Segolene 1° W1 02:58:35 32,93
69 823 DELTENRE Cedric 11° B 02:58:36 32,92
70 726 FRANCK Bouillot 29° C 02:58:36 32,92
71 529 RICHEBORD Nicolas 30° C 02:58:37 32,92
72 795 BRUN Emmanuel 12° B 02:58:38 32,92
73 528 BORNE JEAN Claude 4° E 02:58:39 32,91
74 633 KERAUDREN Dominique 15° D 02:58:41 32,91
75 639 DUNAUD Daniel 16° D 02:58:43 32,9
76 721 DUMONT Jackie 5° E 02:58:44 32,9
77 875 BARON Pascal 17° D 02:58:47 32,89
78 602 TOMBOIS Philippe 31° C 02:58:49 32,88
79 714 COURTEILLE Sebastien 2° VC 02:58:50 32,88
80 801 TARLET JEAN Luc 32° C 02:58:53 32,87
81 710 BECQUET Cyrille 8° A 02:58:56 32,86
82 768 CROCHEMAUX Laurent 33° C 02:59:03 32,84
83 725 SALINESI Philippe 18° D 02:59:05 32,83
84 599 COURVILLE François 19° D 02:59:14 32,81
85 548 CHANSARD Herve 34° C 03:00:37 32,56
86 735 GALLIOT Daniel 3° F 03:01:11 32,45
87 728 MALVEAU JEAN Luc 20° D 03:01:16 32,44
88 717 NONIN Yves 6° E 03:01:16 32,44
89 741 JEUNEU Gilles 35° C 03:01:16 32,44
90 731 DE FREITAS Paula 36° C 03:01:20 32,43
91 877 RIVIERE Romaric 13° B 03:01:26 32,41
92 747 HUON Daniel 4° F 03:01:27 32,41
93 635 TROHAI Stephane 37° C 03:01:32 32,39
94 809 HULOT Thierry 21° D 03:01:33 32,39
95 792 CAILLOT Raymond 7° E 03:02:07 32,29
96 822 FLANDRE Gilles 22° D 03:02:08 32,28
97 534 RECO Andre 5° F 03:02:11 32,28
98 808 JOUANNE Alain 6° F 03:02:12 32,27
99 860 ILLIAQUER Gérard 8° E 03:02:12 32,27
100 761 CHARPENTIER Hubert 38° C 03:02:13 32,27
101 673 PAUTRAT Laurent 39° C 03:02:16 32,26
102 582 BURGEVIN Sabine 1° W2 03:02:18 32,25
103 625 LE BOURGOCQ Dominique 23° D 03:02:20 32,25
104 703 DESSEAUX Regis 40° C 03:02:21 32,25
105 554 CARASSINI Laurent 41° C 03:02:22 32,24
106 750 PAPELARD Georges 9° E 03:02:24 32,24
107 793 GUIBOUX JEAN Marc 24° D 03:02:25 32,23
108 643 HACHE Olivier 25° D 03:02:27 32,23
109 521 DELAPORTE Francois 7° F 03:02:27 32,23
110 759 DAGORNE Sylvain 42° C 03:02:29 32,22
111 503 DELANOY Alain 10° E 03:02:40 32,19
112 718 BELGUISE Herve 26° D 03:02:43 32,18
113 867 LORIAU Pascal 27° D 03:02:51 32,16
114 691 MANGEANT Ludovic 43° C 03:02:56 32,14
115 511 GRAPPIN Christian 8° F 03:03:11 32,1
116 779 VRILLONNEAU Pascal 44° C 03:04:01 31,95
117 802 PREVOT Greg 14° B 03:04:25 31,88
118 815 GUENON Philippe 28° D 03:04:34 31,86
119 766 DEROSIN Michel 29° D 03:04:58 31,79
120 813 TOUSSAINT Laurent 45° C 03:05:03 31,78
121 740 COURTEILLE Gerard 30° D 03:05:18 31,73
122 645 LAPPARRA Sebastien 46° C 03:05:20 31,73
123 816 GARCIA Maxime 15° B 03:05:25 31,71
124 697 PINGUET Eric 47° C 03:05:47 31,65
125 527 GARDAIS Philippe 48° C 03:05:52 31,64
126 751 VANNEAU Pascal 16° B 03:05:58 31,62
127 774 BROUILLET Marcel 31° D 03:06:02 31,61
128 830 PALLESCA Michel 49° C 03:06:20 31,56
129 829 SPAMPINATO Marie 2° W2 03:06:21 31,55
130 525 LAVAINNE Erik 32° D 03:06:29 31,53
131 587 RODDE Philippe 33° D 03:06:30 31,53
132 699 HENRY Philippe 34° D 03:06:37 31,51
133 758 HERVY Eric 50° C 03:06:43 31,49
134 607 GUILLON Victor 9° A 03:07:38 31,34
135 581 RICHARD Michel 11° E 03:08:19 31,22
136 506 HEURTAULT Eric 35° D 03:09:01 31,11
137 580 MONTIGNY Alain 1° H2 03:09:10 31,08
138 579 BECQUET Denis 12° E 03:09:10 31,08
139 845 DENOYELLES Pascal 36° D 03:09:12 31,08
140 608 MORIN Luc 51° C 03:09:24 31,05
141 765 BELIN Laurent 52° C 03:09:24 31,05
142 861 GALASSI Fabrice 37° D 03:09:27 31,04
143 744 ACKERMANN Sylvain 10° A 03:09:27 31,04
144 739 BANCE Christian 13° E 03:09:33 31,02
145 775 CAUCHET Andre 3° VC 03:09:39 31
146 702 SERRAND Philippe 53° C 03:10:12 30,91
147 630 LAFFAYE Bernard 14° E 03:10:16 30,9
148 622 LECOINTE Marc 17° B 03:10:19 30,9
149 713 GARNIER Daniel 9° F 03:10:40 30,84
150 849 GOODBODY James 54° C 03:10:50 30,81
151 853 LAILLET Philippe 38° D 03:10:51 30,81
152 756 ROBILLARD Philippe 15° E 03:10:55 30,8
153 572 RANSON Isabelle 3° W2 03:11:04 30,77
154 530 HALLAY Denis 55° C 03:11:52 30,65
155 825 GOSNET Jerome 56° C 03:11:58 30,63
156 614 GALMOT Christophe 57° C 03:12:13 30,59
157 843 LECOMTE Jean Claude 16° E 03:12:17 30,58
158 868 FRANCOIS Patrick 58° C 03:12:25 30,56
159 727 BREMONT Sebastien 59° C 03:12:30 30,55
160 778 OSARIO JUAN Carlos 60° C 03:13:32 30,38
161 772 FRANC Jacques 39° D 03:13:40 30,36
162 773 FATOUX Vincent 61° C 03:13:44 30,35
163 818 LE NOC Gabriel 18° B 03:14:05 30,3
164 791 LAROUDIE Antoine 11° A 03:14:15 30,27
165 615 ALLAIN David 19° B 03:14:47 30,19
166 592 MOREAU Laurent 20° B 03:15:44 30,04
167 698 VERGNAUD Jean 40° D 03:15:50 30,03
168 862 LEMAIRE Jacques 41° D 03:16:13 29,97
169 692 PIGAL Didier 62° C 03:16:35 29,91
170 686 MALMEZAT Stanislas 21° B 03:16:43 29,89
171 562 RENSON Frederic 22° B 03:17:10 29,82
172 574 GUILLOIS Fanny 2° W1 03:17:16 29,81
173 551 SEGUIN Anthony 23° B 03:17:17 29,8
174 863 ZACCARON Benoit 24° B 03:17:18 29,8
175 736 LELIEVRE Remy 25° B 03:17:18 29,8
176 627 LOCHON Francis 42° D 03:17:22 29,79
177 831 SEMBLA Pascal 63° C 03:17:26 29,78
178 800 PERNAR Bruno 64° C 03:17:27 29,78
179 640 BOUILLON Frederic 26° B 03:17:28 29,78
180 732 LACHAT Michel 43° D 03:17:32 29,77
181 654 FONTAINE Julien 65° C 03:17:37 29,75
182 712 DUPUIS Alain 44° D 03:17:38 29,75
183 656 HACHE Thomas 12° A 03:17:39 29,75
184 859 ROECKEL Franck 45° D 03:17:40 29,75
185 762 ROME JEAN Francois 17° E 03:17:42 29,74
186 611 PELOILLE Laurent 27° B 03:17:48 29,73
187 591 MARCELLAUD Heddy 3° W1 03:17:50 29,72
188 872 GRIZARD Thierry 66° C 03:17:51 29,72
189 628 BLEUZE Henri 46° D 03:17:58 29,7
190 786 DESBARBIEUX JEAN Lou 67° C 03:18:08 29,68
191 545 CHOUDY Lionel 10° F 03:18:09 29,67
192 663 COMTE Gerard 18° E 03:18:12 29,67
193 869 LANDO Grgoire 13° A 03:18:43 29,59
194 790 COLAU Alexandre 68° C 03:19:02 29,54
195 753 AUBERT Francis 47° D 03:19:05 29,54
196 675 REBOUL Daniel 48° D 03:19:16 29,51
197 655 LANCELOT Daniel 69° C 03:19:19 29,5
198 794 SERRAND Yannick 70° C 03:20:06 29,39
199 577 MARTINEAU Patricia 1° W3 03:20:10 29,38
200 743 SAVEGE Maxwell 49° D 03:20:15 29,36
201 569 OLLIVIER Herve 71° C 03:20:16 29,36
202 624 GONDEK Patrick 50° D 03:20:18 29,36
203 810 ROSET Francois 72° C 03:20:22 29,35
204 593 KOENIG Stephanie 4° W2 03:20:25 29,34
205 730 DEVIDE Fabrice 73° C 03:20:27 29,33
206 676 SANNIER JEAN Louis 19° E 03:20:33 29,32
207 664 FAYE JEAN Jacques 51° D 03:20:41 29,3
208 632 MALIBA Bruno 52° D 03:20:44 29,29
209 658 GALAIS Thierry 74° C 03:20:52 29,27
210 613 PIHAN Gerald 75° C 03:20:53 29,27
211 878 DENIS Anthony 28° B 03:20:58 29,26
212 724 GULESIAN Richard 76° C 03:21:02 29,25
213 804 PEYRONNIN Alexandre 29° B 03:21:05 29,24
214 852 CAMIER Jean Sylvain 30° B 03:21:05 29,24
215 550 MERLET Sebastien 77° C 03:21:08 29,23
216 576 MIGNOT Elodie 4° W1 03:21:15 29,22
217 649 POIGNARD David 31° B 03:21:31 29,18
218 652 GORON Gilles 32° B 03:21:31 29,18
219 803 PEYRONNIN Florent 78° C 03:21:40 29,16
220 644 REY Serge 79° C 03:21:48 29,14
221 666 CAHUZAC Guy 20° E 03:21:55 29,12
222 705 IACOBELLI Pierantonio 33° B 03:22:03 29,1
223 873 CHAZOULE Denis 80° C 03:22:33 29,03
224 814 MILCENT Bernard 11° F 03:22:40 29,01
225 642 LALLEMENT Emile 14° A 03:22:46 29
226 742 DUREAU Christian 12° F 03:22:47 29
227 755 BEAUVALLET Gilles 53° D 03:23:26 28,9
228 531 POUYMAYOU Gaston 54° D 03:23:35 28,88
229 866 GODIGNON Frederic 81° C 03:24:08 28,8
230 856 ANTOINE Robin 15° A 03:24:12 28,8
231 540 BAUER Gerard 21° E 03:24:21 28,77
232 629 POUSSET Alain 55° D 03:24:35 28,74
233 760 VERGNAUD Thomas 16° A 03:24:54 28,7
234 777 VANHOUTTE Pascal 56° D 03:24:57 28,69
235 669 MARCHAND Alain 57° D 03:25:14 28,65
236 757 BRETEAU Pascal 58° D 03:25:33 28,61
237 787 STALIN Arnaud 82° C 03:25:42 28,59
238 865 PANZA Bruno 22° E 03:25:44 28,58
239 590 GOHON Vincent 83° C 03:25:52 28,56
240 549 RAFFRAY Sylvain 84° C 03:25:53 28,56
241 517 DUBOT Denis 85° C 03:26:08 28,53
242 634 BARBEY Eric 86° C 03:26:16 28,51
243 700 TAILLEUR Marc 59° D 03:26:29 28,48
244 631 STEPHAN Patrick 60° D 03:26:54 28,42
245 806 LECHAT Didier 61° D 03:27:18 28,36
246 704 PERREU JEAN Marc 62° D 03:27:31 28,34
247 685 MICHAEL Patrick 23° E 03:27:39 28,32
248 776 JOLY Serge 24° E 03:28:00 28,27
249 805 LECHAT Julien 17° A 03:28:09 28,25
250 653 VIOLETTE Patrick 63° D 03:28:11 28,24
251 734 ESNAULT Christian 64° D 03:28:13 28,24
252 746 DELUBAC Nicolas 34° B 03:28:33 28,19
253 754 BAUDOIN JEAN Luc 25° E 03:28:46 28,17
254 617 JARRY Vincent 35° B 03:28:50 28,16
255 667 VIANA Alexandre 36° B 03:31:45 27,77
256 641 BAUDIN Laurent 65° D 03:31:46 27,77
257 844 LOMENEDE Corinne 2° W3 03:31:54 27,75
258 737 DESMONS JEAN Paul 66° D 03:31:54 27,75
259 588 ERNOULT Arlette 3° W3 03:32:23 27,69
260 799 LAMETTE Denis 67° D 03:32:24 27,68
261 876 PARANT Andre 68° D 03:33:20 27,56
262 782 PINAULT Christophe 87° C 03:33:25 27,55
263 832 VIGOT Stéphane 69° D 03:33:48 27,5
264 584 LEVEQUE Jean Michel 70° D 03:34:42 27,39
265 688 GRASSET Philippe 71° D 03:34:47 27,38
266 589 LAFON Jerome 88° C 03:35:40 27,26
267 821 MASSUARD Thierry 89° C 03:35:49 27,25
268 543 DANRE Benoit 90° C 03:36:02 27,22
269 749 CONGY JEAN Pascal 91° C 03:36:14 27,19
270 764 PREVOST Gerard 13° F 03:36:52 27,11
271 650 HEBERT Bertrand 92° C 03:37:19 27,06
272 651 LECLAINCHE Arnaud 37° B 03:37:26 27,04
273 647 CATIGNOL Damien 38° B 03:37:27 27,04
274 648 GAUDIN Didier 93° C 03:37:29 27,04
275 871 CAZAU Marc 94° C 03:37:30 27,03
276 570 SABLON Patrice 72° D 03:37:58 26,98
277 864 COURBOSSIER Yann 39° B 03:39:26 26,8
278 783 WIELGUS Alain 95° C 03:39:42 26,76
279 769 JAVELLE Joel 26° E 03:39:49 26,75
280 532 CODANI Christophe 73° D 03:42:23 26,44
281 626 GALLIER JEAN Claude 27° E 03:42:24 26,44
282 854 MENARD Charlotte 5° W1 03:42:27 26,43
283 537 WACH Gilbert 14° F 03:42:59 26,37
284 561 SCHEFFER Sebastien 96° C 03:44:09 26,23
285 841 FABRE Michel 74° D 03:45:57 26,02
286 729 LARTIGUE Patrick 75° D 03:46:52 25,92
287 874 PELLETIER Ludovic 97° C 03:46:53 25,92
288 563 RENSON Freddy 28° E 03:47:06 25,89
289 752 ADELMARD Frederic 98° C 03:48:25 25,74
290 662 PELORCE Arnaud 2° H2 03:48:30 25,73
291 848 BABELOT Géraldine 5° W2 03:48:31 25,73
292 722 RINDEL Emmanuel 76° D 03:48:36 25,72
293 767 POPIEUL Philippe 77° D 03:48:36 25,72
294 623 BACCONNIER Philippe 78° D 03:48:52 25,69
295 518 HUOT Roland 29° E 03:49:22 25,64
296 668 LAINE Dominique 99° C 03:49:22 25,64
297 780 BILCHELBERGER Pierre 100° C 03:49:34 25,61
298 855 SEGOUIN Michel 30° E 03:49:51 25,58
299 547 VINCENT Patrick 79° D 03:50:16 25,54
300 512 FAURE JEAN Claude 31° E 03:50:36 25,5
301 733 BROISAT Didier 80° D 03:51:02 25,45
302 839 PRIGENT Jacques 32° E 03:51:14 25,43
303 838 FOURNIER Michel 81° D 03:51:16 25,43
304 609 NIDHSAIN Nordine 101° C 03:51:20 25,42
305 660 GHIATI Mehdi 102° C 03:51:29 25,4
306 840 SOULE Hubert 82° D 03:51:45 25,37
307 595 BESANGER Veronique 6° W2 03:51:50 25,36
308 621 PUECHBERTY Philippe 83° D 03:52:26 25,3
309 557 FLANT Pierre 15° F 03:52:26 25,3
310 583 BONNEIRAT Carole 4° W3 03:52:27 25,3
311 524 LINSART Joel 84° D 03:52:32 25,29
312 560 HEUZEY Eric 85° D 03:52:37 25,28
313 827 ANNE Tony 40° B 03:52:49 25,26
314 538 CAUX Gilbert 86° D 03:53:59 25,13
315 817 RIETH Francois 103° C 03:54:07 25,12
316 578 JUGON Corinne 5° W3 03:54:45 25,05
317 670 AGUINET Olivier 104° C 03:56:32 24,86
318 509 LE FLOCH YANN Lukaz 87° D 03:58:05 24,7
319 546 CROUZET Rene 16° F 03:59:34 24,54
320 812 BARRE Thomas 41° B 04:01:12 24,38
321 771 BASROGER Benoit 105° C 04:01:26 24,35
322 770 BASROGER Claude 33° E 04:02:46 24,22
323 646 HEULINE Hugo 106° C 04:03:36 24,14
324 833 DE CARVALHO Luis 18° A 04:03:50 24,11
325 612 BESNARD Sebastien 42° B 04:04:24 24,06
326 824 MAHIEUX Alain 34° E 04:04:34 24,04
327 559 RAIMBAULT Alain 107° C 04:06:04 23,9
328 690 CAMBRAYE Michel 88° D 04:07:53 23,72
329 657 FABBRI Fabien 108° C 04:08:12 23,69
330 616 PHILIBERT Christophe 43° B 04:13:31 23,19
331 610 HAMANDIA Salah 109° C 04:15:12 23,04
332 636 POULAIN Franck 110° C 04:15:12 23,04
333 619 PHILIBERT Christian 17° F 04:15:20 23,03
334 857 BOUDRY Charles 19° A 04:25:02 22,19
335 819 DOMISE Sébastien 111° C 04:27:19 22
336 858 NOTTEBCOM Thibaut 20° A 04:27:20 22

Na górę 









Na górę  
 Strefa prywatna   Prawa autorskie-Copyright: Ciśnijcie tu żeby przeczytać!